Total_Precipitation_Accumulation
1.26 1.39 1.48 1.79 2.11 2.34 2.56 2.78 2.94 3.01 3.29 3.51 3.51 3.44 3.34 3.11 3.02 3.04 2.99 2.88 2.81 2.94 2.98 2.80 2.65 2.68 2.61 2.48 2.43 2.40 2.47 2.39 2.22 2.27 2.22 2.03 1.80 1.61 1.44 1.31 1.25 1.19 1.16
1.14 1.29 1.38 1.57 1.83 2.12 2.41 2.68 2.85 2.96 2.96 3.02 3.27 3.45 3.58 3.45 3.15 3.02 2.99 2.91 2.81 2.82 2.87 2.91 2.86 2.75 2.67 2.61 2.59 2.60 2.67 2.70 2.65 2.64 2.65 2.54 2.38 1.96 1.59 1.46 1.37 1.29 1.27
1.00 1.13 1.29 1.54 1.70 1.88 2.19 2.52 2.72 2.91 2.92 2.94 3.24 3.50 3.68 3.57 3.26 2.88 2.77 2.83 2.82 2.81 2.74 2.75 2.86 2.87 2.78 2.63 2.58 2.58 2.63 2.70 2.70 2.69 2.84 2.63 2.26 1.90 1.69 1.47 1.35 1.32 1.34
0.86 0.93 1.08 1.30 1.49 1.69 1.90 2.12 2.37 2.62 2.89 2.99 3.07 3.15 3.24 3.23 2.97 2.83 2.74 2.82 2.86 2.83 2.78 2.74 2.79 2.82 2.77 2.63 2.57 2.52 2.55 2.64 2.68 2.67 2.59 2.41 2.03 1.85 1.80 1.64 1.45 1.38 1.38
0.85 0.89 1.05 1.25 1.35 1.52 1.80 1.97 2.08 2.34 2.65 2.87 2.91 3.10 3.10 3.07 3.10 3.06 2.95 2.88 2.86 2.80 2.75 2.71 2.73 2.71 2.65 2.61 2.68 2.62 2.61 2.65 2.63 2.56 2.48 2.44 2.17 1.88 1.83 1.75 1.60 1.56 1.47
0.91 1.00 1.14 1.24 1.29 1.41 1.65 1.87 1.91 2.04 2.25 2.59 2.87 2.97 2.96 3.00 2.99 2.94 2.85 2.82 2.83 2.78 2.68 2.59 2.56 2.54 2.58 2.63 2.67 2.73 2.69 2.68 2.70 2.63 2.49 2.47 2.42 2.15 2.02 1.93 1.72 1.72 1.63
0.86 0.97 1.11 1.13 1.18 1.31 1.50 1.69 1.80 1.92 2.03 2.25 2.55 2.80 2.93 3.00 3.01 2.97 2.87 2.72 2.62 2.51 2.46 2.46 2.43 2.38 2.33 2.40 2.56 2.71 2.71 2.66 2.66 2.65 2.60 2.52 2.41 2.22 2.18 2.19 2.04 1.94 1.86
0.75 0.80 0.95 1.03 1.11 1.23 1.34 1.44 1.53 1.61 1.71 1.81 2.00 2.30 2.65 2.83 2.81 2.82 2.76 2.65 2.51 2.45 2.42 2.41 2.38 2.37 2.35 2.31 2.38 2.52 2.62 2.64 2.58 2.46 2.44 2.43 2.37 2.36 2.34 2.32 2.39 2.37 2.14
0.78 0.77 0.85 0.92 0.99 1.12 1.26 1.29 1.35 1.43 1.54 1.61 1.70 1.86 2.17 2.41 2.49 2.54 2.51 2.41 2.32 2.33 2.35 2.37 2.37 2.39 2.40 2.36 2.37 2.43 2.44 2.49 2.51 2.46 2.37 2.31 2.22 2.25 2.27 2.24 2.33 2.55 2.49
0.78 0.74 0.79 0.87 0.88 0.98 1.14 1.18 1.26 1.35 1.51 1.58 1.64 1.72 1.84 1.99 2.19 2.32 2.24 2.20 2.17 2.16 2.15 2.14 2.15 2.17 2.24 2.28 2.30 2.30 2.27 2.28 2.30 2.34 2.37 2.33 2.21 2.21 2.30 2.39 2.39 2.43 2.49
0.80 0.83 0.85 0.89 0.93 1.00 1.07 1.10 1.18 1.29 1.46 1.55 1.56 1.57 1.64 1.71 1.84 1.96 2.02 1.98 2.03 2.05 2.02 1.95 1.97 1.95 1.97 2.05 2.14 2.13 2.14 2.19 2.17 2.20 2.25 2.26 2.22 2.25 2.30 2.42 2.49 2.52 2.58
0.75 0.83 0.85 0.87 0.97 1.02 1.03 1.01 1.06 1.14 1.29 1.38 1.39 1.42 1.47 1.56 1.65 1.72 1.82 1.83 1.84 1.89 1.95 1.90 1.86 1.84 1.81 1.83 1.91 1.95 1.98 2.03 2.05 2.06 2.12 2.16 2.19 2.25 2.28 2.41 2.45 2.40 2.36
0.61 0.67 0.74 0.77 0.83 0.86 0.90 0.97 0.97 0.96 1.03 1.11 1.12 1.17 1.22 1.31 1.46 1.54 1.57 1.63 1.67 1.70 1.75 1.81 1.77 1.74 1.74 1.79 1.80 1.79 1.82 1.84 1.86 1.89 1.95 1.95 2.01 2.10 2.12 2.21 2.30 2.27 2.24
0.55 0.61 0.69 0.68 0.73 0.79 0.80 0.87 0.87 0.87 0.93 0.97 0.97 1.01 1.05 1.10 1.21 1.32 1.38 1.42 1.46 1.50 1.54 1.63 1.64 1.61 1.62 1.69 1.74 1.79 1.80 1.78 1.77 1.79 1.85 1.89 1.92 1.93 1.98 2.09 2.15 2.18 2.23
0.50 0.57 0.68 0.72 0.71 0.78 0.80 0.80 0.87 0.92 0.98 1.01 1.00 0.98 0.98 1.00 1.07 1.16 1.24 1.30 1.33 1.32 1.30 1.35 1.42 1.48 1.52 1.60 1.66 1.75 1.81 1.80 1.78 1.78 1.82 1.88 2.07 2.11 2.10 2.13 2.09 2.13 2.25
0.47 0.50 0.60 0.76 0.72 0.79 0.89 0.88 0.94 1.03 1.05 1.09 1.04 1.01 0.97 0.96 0.96 1.00 1.06 1.12 1.22 1.25 1.27 1.30 1.28 1.34 1.43 1.75 1.84 1.79 1.81 1.85 1.83 1.79 1.75 1.81 1.98 1.96 2.01 2.06 2.09 2.16 2.30
0.43 0.47 0.53 0.70 0.79 0.83 0.95 1.03 1.06 1.13 1.12 1.13 1.06 1.00 0.95 0.93 0.93 0.94 0.97 1.04 1.12 1.21 1.30 1.34 1.36 1.36 1.50 1.80 1.85 1.96 1.88 1.85 1.80 1.74 1.68 1.64 1.61 1.69 1.54 1.67 1.87 1.96 1.99
0.38 0.43 0.49 0.55 0.68 0.74 0.84 0.97 1.04 1.16 1.17 1.17 1.16 1.12 1.09 1.09 1.12 1.13 1.17 1.21 1.21 1.28 1.41 1.49 1.53 1.57 1.66 1.80 1.76 1.86 1.72 1.66 1.61 1.54 1.51 1.47 1.39 1.40 1.47 1.55 1.67 1.57 1.52
0.39 0.40 0.43 0.46 0.52 0.62 0.70 0.82 1.00 1.17 1.29 1.36 1.37 1.39 1.39 1.41 1.43 1.44 1.45 1.46 1.50 1.54 1.56 1.60 1.57 1.56 1.60 1.68 1.65 1.67 1.56 1.54 1.45 1.35 1.33 1.34 1.29 1.45 1.69 1.74 1.66 1.48 1.42
0.39 0.39 0.40 0.42 0.46 0.59 0.67 0.82 1.06 1.27 1.42 1.47 1.51 1.53 1.60 1.65 1.60 1.55 1.51 1.44 1.43 1.48 1.50 1.53 1.52 1.46 1.42 1.49 1.51 1.52 1.45 1.41 1.28 1.22 1.21 1.32 1.31 1.54 1.78 1.75 1.68 1.54 1.30
0.47 0.48 0.50 0.54 0.58 0.65 0.75 0.93 1.09 1.25 1.36 1.39 1.42 1.44 1.43 1.44 1.40 1.36 1.31 1.28 1.26 1.23 1.21 1.19 1.18 1.17 1.23 1.33 1.38 1.45 1.47 1.48 1.39 1.28 1.25 1.25 1.43 1.59 1.74 1.79 1.66 1.55 1.48
0.47 0.57 0.64 0.69 0.70 0.74 0.84 0.93 1.00 1.06 1.08 1.11 1.14 1.15 1.09 1.03 1.03 1.06 1.06 1.05 1.06 1.05 1.02 0.98 0.98 0.97 1.04 1.18 1.29 1.42 1.54 1.58 1.57 1.40 1.26 1.33 1.58 1.71 1.77 1.76 1.70 1.75 1.81
0.32 0.38 0.48 0.55 0.56 0.57 0.63 0.70 0.69 0.68 0.70 0.72 0.79 0.83 0.82 0.79 0.78 0.83 0.87 0.89 0.92 0.94 0.94 0.92 0.93 0.92 0.92 1.01 1.17 1.29 1.48 1.61 1.53 1.39 1.44 1.55 1.68 1.74 1.73 1.75 1.75 1.71 1.64
0.26 0.29 0.32 0.36 0.38 0.39 0.42 0.46 0.47 0.45 0.47 0.54 0.61 0.69 0.74 0.76 0.76 0.78 0.82 0.86 0.88 0.92 0.93 0.94 0.93 0.90 0.86 0.93 1.08 1.24 1.37 1.54 1.56 1.52 1.55 1.60 1.62 1.62 1.63 1.69 1.71 1.65 1.59
0.28 0.30 0.33 0.34 0.36 0.37 0.38 0.40 0.43 0.42 0.44 0.47 0.53 0.60 0.68 0.75 0.77 0.77 0.80 0.87 0.88 1.01 1.21 1.22 1.14 1.16 1.15 1.10 1.32 1.54 1.58 1.62 1.69 1.76 1.75 1.66 1.59 1.59 1.58 1.55 1.55 1.59 1.63
0.31 0.31 0.34 0.38 0.41 0.43 0.46 0.46 0.47 0.47 0.48 0.50 0.52 0.59 0.66 0.72 0.77 0.80 0.82 0.87 0.91 0.98 1.07 1.15 1.23 1.21 1.24 1.33 1.44 1.51 1.57 1.66 1.80 1.92 1.85 1.61 1.48 1.44 1.43 1.47 1.51 1.53 1.55